ZHUHAI-1 02 (CAS-4B)

Last updated on Tue Sep 16 2025 00:02:31 GMT+0000 (Coordinated Universal Time)

1 42759U 17034B 25258.69543374 .00245517 00000+0 10335-2 0 9992 2 42759 43.0003 90.3651 0023926 269.8978 89.9153 15.83591699458035
UTC large
Height (km)
Speed (km/s)
/
Latitude / Longitude
Inclination (degrees)
Orbital Period (minutes)
Azimuth
Elevation
Range (km)
Doppler Factor

Next 0 passes for location: London (51.5072 / 0.1276)

Sorry there are no passes over London.